Hebron, NE

7:58 PM CST on December 06, 2019 (GMT -0600)
Hebron Municipal

Weather History for KHJH - September, 2019

Change the Weather History Date:

Thursday, September 12, 2019

  Actual Average Record
Temperature  
Mean Temperature 70 °F -  
Max Temperature 80 °F 83 °F 97 °F (1956)
Min Temperature 60 °F 56 °F 37 °F (1959)
Cooling Degree Days 6    
Growing Degree Days 20 (Base 50)    
Moisture  
Dew Point 60 °F    
Average Humidity 64    
Maximum Humidity 85    
Minimum Humidity 37    
Precipitation  
Precipitation 0.00 in - - ()
Sea Level Pressure  
Sea Level Pressure 29.98 in    
Wind  
Wind Speed 9 mph (WSW)    
Max Wind Speed 13 mph    
Max Gust Speed 23 mph    
Visibility 10 miles    
Events      
Averages and records for this station are not official NWS values.
T = Trace of Precipitation, MM = Missing Value Source: NWS Daily Summary

Daily Weather History Graph

Daily Weather History Graph

Search for Another Location

Airport or City:

Astronomy

Sep. 12, 2019 Rise Set
Actual Time 7:08 AM CDT 7:44 PM CDT
Civil Twilight 6:40 AM CDT 8:11 PM CDT
Nautical Twilight 6:08 AM CDT 8:43 PM CDT
Astronomical Twilight 5:35 AM CDT 9:17 PM CDT
Moon 7:29 PM CDT (9/12) 5:29 AM CDT (9/12)
Length of Visible Light 13h 30m
Length of Day
12h 36m
Waxing Gibbous, 98% of the Moon is Illuminated
Sep 12
Waxing Gibbous
Sep 13
Full
Sep 21
Last Quarter
Sep 28
New
Oct 5
First Quarter

Hourly Weather History & Observations

Time (CDT) Temp. Heat Index Dew Point Humidity Pressure Visibility Wind Dir Wind Speed Gust Speed Precip Events Conditions
12:15 AM 77.7 °F - 67.1 °F 70% 29.89 in 10.0 mi South 10.4 mph 20.7 mph N/A   Clear
12:35 AM 77.4 °F - 66.7 °F 70% 29.89 in 10.0 mi South 12.7 mph 20.7 mph N/A   Clear
12:55 AM 77.0 °F - 66.6 °F 70% 29.89 in 10.0 mi South 9.2 mph - N/A   Clear
1:15 AM 76.8 °F - 66.6 °F 70% 29.88 in 10.0 mi South 10.4 mph - N/A   Clear
1:35 AM 76.1 °F - 66.6 °F 72% 29.88 in 10.0 mi South 10.4 mph 16.1 mph N/A   Clear
1:55 AM 76.1 °F - 66.4 °F 72% 29.88 in 10.0 mi South 10.4 mph - N/A   Clear
2:15 AM 75.4 °F - 66.6 °F 74% 29.88 in 10.0 mi South 9.2 mph - N/A   Clear
2:35 AM 75.4 °F - 66.2 °F 73% 29.87 in 10.0 mi South 10.4 mph - N/A   Clear
2:55 AM 76.1 °F - 66.2 °F 71% 29.87 in 10.0 mi South 11.5 mph - N/A   Clear
3:15 AM 75.7 °F - 66.2 °F 72% 29.86 in 10.0 mi South 10.4 mph - N/A   Clear
3:35 AM 76.1 °F - 66.2 °F 71% 29.88 in 10.0 mi South 8.1 mph - N/A   Mostly Cloudy
3:55 AM 75.7 °F - 66.4 °F 73% 29.89 in 10.0 mi SSW 9.2 mph - N/A   Overcast
4:15 AM 75.4 °F - 66.4 °F 73% 29.88 in 10.0 mi South 6.9 mph - N/A   Overcast
4:35 AM 74.5 °F - 66.4 °F 76% 29.88 in 10.0 mi South 8.1 mph - N/A   Mostly Cloudy
4:55 AM 74.8 °F - 66.4 °F 75% 29.88 in 10.0 mi South 9.2 mph - N/A   Overcast
5:15 AM 75.0 °F - 66.4 °F 74% 29.87 in 10.0 mi South 8.1 mph - N/A   Overcast
5:35 AM 74.5 °F - 66.6 °F 76% 29.87 in 10.0 mi South 9.2 mph - N/A   Scattered Clouds
5:55 AM 73.8 °F - 66.7 °F 79% 29.86 in 10.0 mi South 10.4 mph - N/A   Clear
6:15 AM 73.9 °F - 67.1 °F 79% 29.86 in 10.0 mi South 10.4 mph 16.1 mph N/A   Clear
6:35 AM 73.0 °F - 67.1 °F 82% 29.87 in 10.0 mi South 8.1 mph - N/A   Clear
6:55 AM 72.5 °F - 67.1 °F 83% 29.88 in 10.0 mi South 8.1 mph - N/A   Clear
7:15 AM 72.1 °F - 67.1 °F 84% 29.89 in 10.0 mi SSW 9.2 mph - N/A   Clear
7:35 AM 72.1 °F - 67.1 °F 84% 29.89 in 10.0 mi SSW 8.1 mph - N/A   Clear
7:55 AM 72.7 °F - 67.5 °F 84% 29.89 in 10.0 mi SSW 6.9 mph - N/A   Clear
8:15 AM 73.6 °F - 67.6 °F 82% 29.90 in 10.0 mi SSW 9.2 mph - N/A   Clear
8:35 AM 74.3 °F - 67.6 °F 80% 29.93 in 10.0 mi West 10.4 mph 18.4 mph N/A   Mostly Cloudy
8:55 AM 72.5 °F - 67.6 °F 85% 29.93 in 10.0 mi WNW 3.5 mph - N/A   Mostly Cloudy
9:15 AM 73.8 °F - 67.8 °F 82% 29.94 in 10.0 mi WNW 6.9 mph - N/A   Scattered Clouds
9:55 AM 72.7 °F - 66.6 °F 81% 29.96 in 10.0 mi WNW 10.4 mph 17.3 mph N/A   Mostly Cloudy
10:35 AM 73.9 °F - 63.1 °F 69% 29.97 in 10.0 mi NW 11.5 mph 19.6 mph N/A   Scattered Clouds
10:55 AM 74.8 °F - 61.9 °F 64% 29.97 in 10.0 mi WNW 10.4 mph 18.4 mph N/A   Clear
11:15 AM 76.3 °F - 60.8 °F 59% 29.97 in 10.0 mi WNW 11.5 mph 17.3 mph N/A   Clear
11:35 AM 77.5 °F - 59.7 °F 54% 29.98 in 10.0 mi NW 11.5 mph 23.0 mph N/A   Clear
11:55 AM 78.8 °F - 60.6 °F 54% 29.99 in 10.0 mi WNW 11.5 mph 18.4 mph N/A   Clear
12:15 PM 77.0 °F - 58.3 °F 52% 30.00 in 10.0 mi NW 12.7 mph 19.6 mph N/A   Clear
12:35 PM 78.6 °F - 58.3 °F 50% 30.01 in 10.0 mi NW 11.5 mph 18.4 mph N/A   Clear
12:55 PM 74.7 °F - 57.9 °F 56% 30.01 in 10.0 mi WNW 6.9 mph - N/A   Clear
1:15 PM 74.8 °F - 56.7 °F 53% 30.01 in 10.0 mi WNW 6.9 mph - N/A   Scattered Clouds
1:35 PM 73.6 °F - 55.9 °F 54% 30.02 in 10.0 mi West 6.9 mph - N/A   Clear
1:55 PM 74.3 °F - 54.5 °F 50% 30.01 in 10.0 mi West 6.9 mph - N/A   Clear
2:15 PM 76.3 °F - 55.2 °F 48% 30.02 in 10.0 mi West 6.9 mph - N/A   Clear
2:35 PM 77.7 °F - 55.2 °F 46% 30.02 in 10.0 mi WNW 5.8 mph - N/A   Clear
3:10 PM 79.0 °F - 55.2 °F 44% 30.02 in 10.0 mi WNW 9.2 mph - N/A   Clear
3:35 PM 77.7 °F - 55.0 °F 45% 30.02 in 10.0 mi WNW 8.1 mph - N/A   Clear
3:55 PM 79.0 °F - 54.9 °F 43% 30.02 in 10.0 mi WNW 9.2 mph - N/A   Clear
4:15 PM 79.7 °F - 55.4 °F 43% 30.02 in 10.0 mi WNW 9.2 mph - N/A   Clear
4:35 PM 79.7 °F - 53.2 °F 40% 30.01 in 10.0 mi WNW 11.5 mph 17.3 mph N/A   Clear
4:55 PM 80.2 °F 80.0 °F 53.4 °F 39% 30.02 in 10.0 mi NW 6.9 mph - N/A   Clear
5:15 PM 80.2 °F - 51.8 °F 37% 30.01 in 10.0 mi NW 9.2 mph - N/A   Clear
5:35 PM 80.1 °F - 51.8 °F 37% 30.01 in 10.0 mi WNW 6.9 mph - N/A   Clear
6:15 PM 79.0 °F - 51.4 °F 38% 30.02 in 10.0 mi West 6.9 mph - N/A   Clear
6:35 PM 77.9 °F - 52.3 °F 41% 30.03 in 10.0 mi WNW 6.9 mph - N/A   Clear
6:55 PM 76.5 °F - 52.3 °F 43% 30.03 in 10.0 mi WNW 5.8 mph - N/A   Clear
7:15 PM 74.3 °F - 54.5 °F 50% 30.04 in 10.0 mi WSW 3.5 mph - N/A   Clear
7:35 PM 71.8 °F - 56.3 °F 58% 30.05 in 10.0 mi WSW 4.6 mph - N/A   Clear
7:55 PM 70.0 °F - 55.9 °F 61% 30.06 in 10.0 mi SW 4.6 mph - N/A   Clear
8:15 PM 69.1 °F - 55.8 °F 62% 30.07 in 10.0 mi SW 6.9 mph - N/A   Clear
8:35 PM 68.9 °F - 55.6 °F 62% 30.08 in 10.0 mi SW 4.6 mph - N/A   Clear
8:55 PM 67.8 °F - 55.4 °F 64% 30.09 in 10.0 mi SW 5.8 mph - N/A   Clear
9:15 PM 66.7 °F - 55.6 °F 67% 30.10 in 10.0 mi West 4.6 mph - N/A   Clear
9:35 PM 65.3 °F - 55.9 °F 72% 30.11 in 10.0 mi West 5.8 mph - N/A   Clear
9:55 PM 68.4 °F - 53.4 °F 59% 30.12 in 10.0 mi WNW 10.4 mph 16.1 mph N/A   Clear
10:15 PM 67.1 °F - 52.7 °F 60% 30.13 in 10.0 mi WNW 6.9 mph - N/A   Clear
10:35 PM 66.7 °F - 52.0 °F 59% 30.14 in 10.0 mi WNW 6.9 mph - N/A   Clear
10:55 PM 64.8 °F - 52.2 °F 64% 30.14 in 10.0 mi WNW 4.6 mph - N/A   Clear
11:15 PM 63.0 °F - 52.3 °F 68% 30.15 in 10.0 mi West 3.5 mph - N/A   Clear
11:35 PM 61.0 °F - 53.4 °F 76% 30.15 in 10.0 mi Calm Calm - N/A   Clear
11:55 PM 60.6 °F - 52.7 °F 75% 30.16 in 10.0 mi West 3.5 mph - N/A   Clear